Location: ???? ?????
(30.0052°N, 31.2891°E)
Time: 02:54:49
(UTC+00:00)

Delta 2 Rocket - Visible Passes

Search period start: 28 January 2023 00:00
Search period end: 07 February 2023 00:00
Orbit: 411 x 762 km, 35.6° (Epoch: 27 January)

Date Brightness Start Highest point End Pass type
(mag) Time Alt. Az. Time Alt. Az. Time Alt. Az.
28 Jan 3.4 16:24:40 10° SW 16:27:51 43° SSE 16:29:31 24° E visible
29 Jan 2.7 16:30:15 10° WSW 16:33:33 77° SSE 16:35:07 30° ENE visible
30 Jan 2.9 16:36:00 10° WSW 16:39:17 65° NNW 16:40:37 33° NE visible
31 Jan 3.4 16:41:51 10° W 16:45:02 44° NNW 16:46:05 32° NE visible
01 Feb 3.8 16:47:45 10° WNW 16:50:49 34° N 16:51:30 31° NNE visible
02 Feb 3.9 16:53:37 10° WNW 16:56:35 30° N 16:56:52 30° N visible
03 Feb 4.0 16:59:23 10° WNW 17:02:13 29° N 17:02:13 29° N visible
04 Feb 4.0 17:05:01 10° WNW 17:07:34 31° NNW 17:07:34 31° NNW visible
05 Feb 4.0 17:10:33 10° WNW 17:12:55 33° NNW 17:12:55 33° NNW visible
06 Feb 3.9 17:16:01 10° WNW 17:18:17 37° NW 17:18:17 37° NW visible
